This is the latest recevied weather packets stored in our database for station/object KF0WJA. If no packets are shown the sender has not sent any weather packets the latest 10 day(s).
| Time | Temp. | Humidity | Pressure | Rain* | Wind** | Luminosity | Snow |
|---|---|---|---|---|---|---|---|
| 1787497533 | 25.56° C | 67% | 1022.6 hPa | 0 mm | - | 396 W/m² | - |
| 1787497232 | 25.56° C | 67% | 1022.6 hPa | 0 mm | - | 160 W/m² | - |
| 1787496932 | 26.11° C | 66% | 1022.6 hPa | 0 mm | - | 337 W/m² | - |
| 1787496627 | 26.11° C | 66% | 1022.4 hPa | 0 mm | - | 346 W/m² | - |
| 1787496322 | 25.56° C | 67% | 1022.4 hPa | 0 mm | - | 321 W/m² | - |
| 1787496021 | 25.56° C | 67% | 1022.4 hPa | 0 mm | - | 325 W/m² | - |
| 1787495716 | 25° C | 68% | 1022.2 hPa | 0 mm | - | 256 W/m² | - |
| 1787495413 | 25° C | 68% | 1022.1 hPa | 0 mm | - | 159 W/m² | - |
| 1787495109 | 25° C | 68% | 1022.3 hPa | 0 mm | - | 202 W/m² | - |
| 1787494803 | 25° C | 69% | 1022.1 hPa | 0 mm | - | 127 W/m² | - |
| 1787494498 | 24.44° C | 70% | 1022.1 hPa | 0 mm | - | 274 W/m² | - |
| 1787494193 | 23.89° C | 72% | 1022.4 hPa | 0 mm | - | 134 W/m² | - |
| 1787493889 | 24.44° C | 72% | 1022.4 hPa | 0 mm | - | 138 W/m² | - |
| 1787493584 | 23.89° C | 73% | 1022.5 hPa | 0 mm | - | 192 W/m² | - |
| 1787493279 | 23.89° C | 73% | 1022.5 hPa | 0 mm | - | 161 W/m² | - |
| 1787492976 | 23.89° C | 74% | 1022.4 hPa | 0 mm | - | 150 W/m² | - |
| 1787492671 | 23.89° C | 74% | 1022.3 hPa | 0 mm | - | 143 W/m² | - |
| 1787492368 | 23.89° C | 74% | 1022.2 hPa | 0 mm | - | 138 W/m² | - |
| 1787492067 | 23.89° C | 75% | 1022.5 hPa | 0 mm | - | 132 W/m² | - |
| 1787491763 | 23.33° C | 75% | 1022.3 hPa | 0 mm | - | 119 W/m² | - |
| 1787491458 | 23.33° C | 77% | 1022.1 hPa | 0 mm | - | 111 W/m² | - |
| 1787491153 | 22.78° C | 79% | 1022.1 hPa | 0 mm | - | 122 W/m² | - |
| 1787490850 | 22.78° C | 80% | 1022.1 hPa | 0 mm | - | 118 W/m² | - |
| 1787490548 | 22.22° C | 82% | 1022.1 hPa | 0 mm | - | 109 W/m² | - |
| 1787490249 | 22.22° C | 82% | 1022 hPa | 0 mm | - | 97 W/m² | - |
* Rain latest hour (hover to see other rain measurements)
** Current wind speed in m/s (hover to see current wind gust speed)